星链-3714 (STARLINK-3714 )

导读

STARLINK-3714是美国太空探索技术公司(SpaceX)星链(Starlink)互联网卫星星座的组成卫星,由SpaceX在2022年3月19日发射升空,星链项目旨在为全球提供高速低延迟卫星互联网服务,该卫星属于星链卫星网络中承担全球网络覆盖的一员。

Basic Information
目录编号:
52094
目录名称:
STARLINK-3714
国际标识:
2022-029G
轨道中心:
EARTH
卫星名称:
星链-3714
卫星全名:
星链-3714 (STARLINK-3714 )
卫星状态:
在轨 (已飞行1630 天)
发射日期:
2022-03-19 UTC
国别 :
美国 (US)
星等 :
--
Orbit Information
数据来源 国际轨道数据
星历时间: 2026-09-04T02:08:48+0800
11小时前
查看轨道信息
半长轴: 6840.842km
偏心率: 0.0001188
轨道倾角: 53.161°
近地点辐角 78.483°
升交点赤经 359.646°
平近点角 281.630°
近地点: 461.892km
远地点: 463.518km
周期: 93.848分钟
每日圈数: 15.343997
Detailed Information
固有亮度:
5
最大亮度:
2.5
卫星平台:
Starlink v1.5
覆盖范围:
全球
运营商:
太空探索技术公司
运营商所在国:
美国
制造商(研发单位):
太空探索技术公司
制造商所在国:
美国
使用方式:
暂无
Satellite Introduction
星链(Starlink)计划是由太空探索技术公司(SpaceX)提出的一个巨型低轨卫星互联网星座项目,计划在2019年至2024年间在太空搭建由约1.2万颗卫星组成的“星链”网络,其中1584颗将部署在地球上空550千米处的近地轨道,并从2020年开始工作。该卫星仍在工作。
2D Orbit Map
3D Orbit Map
Orbit Altitude Analysis Chart
Orbit Inclination Analysis Chart
Orbit Comprehensive Analysis Chart
View Comprehensive Chart
Conjunction Data List
Event ID Objects TCA Miss Dist (km) Collision Risk Probability Collision Risk Index (CRI) Action
CDM_260830-183105-209406-265923
2026-08-30T
18:31:23+0000
1.325 km
极远距离
6.914321E-6 低风险 0.52
CDM_260901-142905-209405-703822
2026-09-01T
14:29:27+0000
1.518 km
极远距离
3.490513E-6 低风险 0.46
CDM_260902-133805-209406-537921
2026-09-02T
13:38:04+0000
2.612 km
极远距离
1.461303E-6 低风险 0.38
CDM_260905-043205-209406-825221
2026-09-05T
04:32:25+0000
2.724 km
极远距离
1.3639E-6 低风险 0.38
CDM_260905-164605-209405-315921
2026-09-05T
16:46:24+0000
2.367 km
极远距离
1.353757E-6 低风险 0.38
CDM_260829-181305-209405-340521
2026-08-29T
18:13:08+0000
2.858 km
极远距离
7.060327E-7 极低风险 0.32